Temp
-6 -6 -6 -7 -6 -6 -6 -6 -6 -6 -7 -7 -8 -9 -9 -10 -10 -11 -10 -10 -9 -10 -11 -10 -10 -9 -9 -7 -7 -5 -5 -4 -3 -3 -2 -0 -0 1 2 2 2 2 2 3
-5 -6 -6 -7 -7 -6 -6 -6 -6 -7 -7 -7 -9 -9 -8 -10 -11 -10 -9 -9 -9 -9 -10 -10 -10 -10 -10 -9 -8 -7 -5 -4 -4 -4 -2 -2 -1 0 1 2 1 2 2 2
-6 -6 -6 -6 -5 -5 -6 -6 -6 -7 -7 -8 -8 -8 -9 -10 -9 -9 -9 -9 -9 -9 -10 -10 -10 -10 -10 -10 -9 -7 -6 -5 -4 -4 -3 -2 -1 -0 0 1 2 2 2 2
-6 -6 -5 -5 -5 -5 -6 -6 -6 -6 -7 -8 -8 -8 -9 -9 -9 -9 -9 -9 -9 -9 -11 -11 -10 -10 -11 -10 -10 -9 -8 -7 -4 -4 -3 -2 -1 -1 1 1 1 2 2 2
-6 -6 -5 -4 -5 -6 -6 -5 -6 -6 -7 -8 -8 -8 -9 -9 -9 -9 -8 -8 -8 -9 -10 -11 -10 -10 -10 -10 -10 -9 -8 -6 -5 -3 -2 -2 -1 -1 0 1 1 1 1 1
-7 -6 -5 -4 -5 -5 -6 -7 -6 -6 -7 -7 -8 -8 -8 -8 -8 -8 -8 -8 -8 -8 -9 -11 -10 -10 -10 -9 -9 -8 -7 -7 -5 -4 -3 -1 -2 -1 -1 -0 0 1 1 1
-6 -5 -5 -4 -4 -6 -7 -6 -6 -6 -7 -7 -7 -7 -7 -7 -7 -7 -7 -8 -8 -8 -9 -9 -9 -10 -10 -9 -8 -7 -7 -6 -5 -4 -2 -2 -1 -1 -1 0 0 1 1 1
-4 -4 -4 -3 -5 -6 -5 -6 -6 -7 -9 -7 -6 -6 -7 -7 -6 -6 -7 -7 -7 -8 -8 -9 -10 -8 -9 -8 -7 -7 -6 -6 -5 -3 -3 -2 -1 -1 0 1 1 1 0 1
-3 -1 -1 -1 -2 -3 -4 -4 -5 -6 -6 -5 -5 -6 -5 -5 -5 -5 -5 -6 -7 -7 -7 -7 -8 -8 -7 -6 -7 -6 -6 -6 -5 -4 -3 -1 -0 -0 0 0 0 1 0 0
-1 1 0 0 -0 -1 -2 -2 -3 -4 -4 -4 -4 -5 -5 -5 -5 -5 -5 -5 -5 -5 -6 -6 -7 -8 -7 -6 -6 -6 -6 -5 -5 -5 -4 -3 -2 -2 -1 -1 -1 -0 0 0
1 2 1 0 0 -0 -1 -1 -2 -2 -3 -3 -4 -4 -4 -4 -4 -5 -5 -5 -5 -5 -4 -4 -5 -5 -5 -5 -5 -4 -4 -4 -4 -4 -3 -3 -3 -3 -3 -2 -2 -1 -2 -1
1 1 1 1 0 -0 -0 -1 -1 -2 -2 -3 -3 -3 -3 -4 -4 -4 -4 -4 -4 -4 -4 -4 -4 -4 -4 -4 -4 -3 -3 -3 -3 -3 -2 -2 -2 -2 -3 -3 -2 -2 -2 -1
1 -0 1 1 1 0 -0 -0 -1 -1 -1 -2 -2 -3 -3 -3 -3 -3 -3 -4 -4 -4 -4 -4 -4 -4 -4 -4 -4 -3 -3 -3 -3 -3 -3 -3 -2 -2 -2 -2 -2 -2 -1 -1
-1 0 1 1 1 0 0 -0 -0 -1 -1 -1 -2 -2 -2 -2 -3 -3 -3 -3 -3 -3 -3 -3 -4 -4 -4 -4 -4 -4 -4 -4 -4 -4 -4 -3 -3 -3 -3 -2 -2 -2 -2 -2
-2 -2 0 1 1 1 0 0 0 -0 -1 -1 -1 -1 -2 -2 -2 -2 -3 -3 -3 -3 -3 -3 -3 -3 -3 -3 -4 -4 -4 -4 -4 -4 -4 -4 -3 -4 -4 -3 -3 -3 -3 -3
-2 -3 -1 0 0 0 1 0 0 -0 -0 -1 -1 -1 -2 -2 -2 -2 -3 -3 -3 -3 -3 -3 -3 -3 -3 -3 -3 -4 -4 -4 -4 -4 -4 -4 -4 -4 -4 -4 -4 -4 -4 -4
-1 -3 -2 -0 0 0 0 0 0 -0 -1 -1 -1 -1 -1 -1 -2 -2 -2 -3 -3 -3 -4 -4 -3 -3 -3 -4 -4 -4 -4 -4 -4 -4 -4 -4 -4 -4 -4 -4 -4 -4 -4 -4
-1 -0 -3 -2 -1 -1 -1 -0 -0 -0 -0 -1 -1 -1 -1 -1 -2 -2 -2 -3 -3 -3 -3 -4 -4 -4 -4 -4 -4 -4 -4 -4 -4 -4 -4 -4 -4 -4 -4 -4 -4 -4 -4 -4
-2 -1 -1 -3 -3 -3 -2 -1 -1 -0 -1 -1 -1 -1 -1 -1 -2 -2 -2 -2 -3 -3 -3 -3 -3 -4 -4 -4 -4 -4 -4 -4 -4 -4 -4 -4 -4 -4 -4 -4 -4 -4 -4 -4
-3 -2 -2 -2 -2 -2 -3 -3 -3 -2 -1 -1 -1 -1 -1 -1 -2 -2 -2 -2 -2 -3 -3 -3 -3 -3 -4 -4 -4 -4 -4 -4 -4 -4 -4 -4 -4 -4 -4 -5 -5 -5 -5 -5
-4 -4 -3 -3 -3 -2 -2 -3 -3 -3 -2 -1 -2 -1 -1 -2 -2 -2 -2 -2 -3 -3 -3 -3 -3 -3 -3 -3 -4 -4 -4 -4 -4 -4 -4 -5 -5 -5 -5 -5 -5 -5 -6 -6
-4 -4 -4 -4 -4 -3 -3 -3 -3 -3 -3 -2 -2 -2 -2 -2 -2 -2 -2 -2 -3 -3 -3 -3 -3 -4 -4 -3 -4 -4 -4 -4 -5 -5 -5 -5 -5 -5 -5 -5 -6 -6 -6 -6
-8 -5 -5 -5 -4 -4 -4 -3 -3 -4 -3 -3 -2 -2 -2 -2 -2 -3 -2 -2 -3 -3 -3 -3 -3 -4 -4 -4 -4 -4 -4 -4 -5 -5 -5 -5 -5 -5 -6 -6 -6 -6 -6 -6
-8 -8 -7 -6 -5 -5 -5 -5 -4 -4 -4 -4 -4 -3 -3 -2 -3 -3 -3 -3 -3 -3 -3 -4 -4 -4 -4 -4 -4 -4 -4 -4 -5 -5 -5 -5 -5 -6 -6 -6 -7 -7 -7 -7
-10 -9 -10 -10 -9 -7 -6 -6 -6 -6 -5 -4 -4 -4 -3 -3 -3 -3 -3 -3 -3 -3 -3 -4 -4 -4 -4 -4 -4 -4 -4 -5 -5 -5 -6 -6 -6 -6 -7 -7 -7 -7 -7 -7
-12 -12 -11 -10 -10 -10 -8 -7 -7 -7 -6 -6 -5 -4 -3 -4 -3 -3 -3 -3 -4 -4 -4 -4 -4 -4 -4 -5 -5 -5 -5 -5 -5 -5 -6 -6 -6 -6 -7 -7 -7 -7 -8 -8
-14 -14 -13 -12 -12 -10 -10 -10 -9 -7 -8 -7 -6 -7 -6 -5 -4 -4 -4 -4 -4 -4 -4 -4 -4 -4 -5 -5 -5 -5 -5 -5 -5 -5 -6 -6 -6 -7 -7 -7 -7 -8 -8 -8
Height
3105 3102 3099 3096 3095 3095 3094 3092 3090 3086 3082 3081 3074 3071 3067 3064 3060 3054 3047 3042 3036 3029 3022 3016 3010 3005 3001 2998 2998 3000 3006 3013 3021 3029 3038 3046 3055 3062 3070 3078 3085 3089 3093 3095
3099 3097 3095 3090 3088 3088 3087 3086 3083 3081 3077 3077 3070 3066 3062 3058 3054 3048 3043 3037 3031 3024 3017 3010 3004 2997 2991 2988 2987 2989 2995 3003 3012 3021 3030 3041 3046 3054 3064 3070 3077 3082 3087 3089
3097 3095 3091 3084 3081 3082 3080 3079 3077 3074 3072 3069 3065 3061 3056 3053 3049 3045 3040 3034 3028 3021 3013 3005 2999 2993 2986 2981 2980 2982 2987 2994 3003 3014 3022 3029 3038 3047 3056 3063 3069 3076 3080 3082
3096 3093 3086 3080 3079 3076 3074 3073 3069 3067 3066 3064 3060 3056 3053 3049 3045 3042 3036 3031 3026 3019 3011 3004 2997 2989 2982 2977 2975 2976 2980 2986 2995 3006 3013 3023 3033 3042 3051 3057 3063 3068 3073 3079
3099 3094 3085 3077 3075 3075 3071 3066 3064 3063 3061 3059 3056 3053 3050 3046 3043 3038 3034 3027 3022 3017 3010 3001 2995 2987 2980 2977 2974 2974 2977 2982 2990 2999 3007 3017 3028 3036 3043 3051 3059 3065 3069 3073
3097 3096 3085 3076 3074 3070 3067 3064 3063 3061 3058 3056 3054 3051 3048 3045 3042 3037 3032 3026 3021 3016 3010 3002 2995 2989 2983 2978 2977 2977 2980 2983 2988 2995 3005 3014 3024 3028 3038 3048 3054 3059 3063 3067
3095 3092 3081 3074 3072 3070 3070 3070 3062 3059 3058 3056 3053 3051 3047 3044 3040 3036 3032 3026 3022 3016 3010 3004 2997 2992 2987 2983 2979 2979 2980 2985 2990 2996 3005 3011 3022 3029 3037 3043 3049 3053 3057 3061
3091 3087 3080 3072 3071 3069 3067 3063 3061 3059 3058 3055 3054 3051 3048 3045 3041 3038 3034 3029 3023 3018 3013 3007 3001 2997 2993 2988 2986 2985 2987 2990 2992 2998 3002 3012 3021 3027 3033 3038 3043 3047 3051 3054
3090 3082 3077 3073 3070 3066 3064 3062 3061 3059 3058 3057 3055 3052 3049 3046 3044 3040 3036 3031 3027 3022 3018 3012 3006 3001 2999 2996 2993 2994 2995 2996 2997 2999 3004 3011 3018 3024 3028 3033 3038 3042 3045 3048
3084 3080 3077 3074 3071 3068 3066 3063 3062 3060 3059 3058 3056 3054 3052 3050 3046 3043 3040 3036 3032 3028 3024 3019 3014 3009 3006 3004 3003 3002 3002 3002 3004 3008 3011 3015 3019 3023 3027 3031 3035 3038 3041 3044
3080 3078 3076 3074 3072 3071 3068 3066 3064 3062 3061 3060 3058 3056 3054 3052 3050 3047 3044 3040 3037 3032 3028 3025 3022 3019 3016 3014 3012 3011 3010 3011 3012 3013 3015 3019 3021 3024 3026 3029 3033 3037 3041 3043
3078 3077 3076 3074 3072 3070 3069 3067 3066 3064 3062 3061 3059 3058 3056 3054 3052 3050 3047 3044 3041 3038 3034 3031 3028 3026 3024 3023 3021 3020 3019 3018 3019 3019 3019 3021 3023 3025 3026 3031 3036 3039 3040 3041
3076 3075 3074 3072 3071 3070 3068 3067 3066 3065 3063 3062 3060 3059 3057 3056 3054 3053 3050 3048 3046 3043 3041 3038 3035 3032 3030 3029 3028 3027 3026 3026 3025 3026 3027 3029 3030 3032 3034 3036 3037 3039 3040 3042
3073 3072 3070 3070 3069 3068 3067 3066 3064 3064 3063 3062 3061 3060 3059 3057 3056 3054 3052 3051 3049 3047 3045 3044 3042 3039 3037 3036 3035 3034 3034 3033 3033 3034 3034 3035 3036 3036 3036 3037 3039 3041 3042 3043
3071 3066 3065 3065 3064 3064 3064 3063 3062 3062 3061 3060 3060 3059 3058 3057 3056 3055 3053 3052 3051 3049 3048 3046 3045 3044 3043 3042 3041 3040 3040 3039 3039 3039 3038 3038 3039 3040 3040 3041 3042 3044 3045 3046
3065 3062 3059 3059 3059 3059 3059 3059 3059 3059 3058 3058 3057 3056 3056 3055 3054 3053 3051 3050 3050 3049 3048 3047 3046 3045 3044 3044 3043 3042 3042 3042 3041 3041 3041 3042 3042 3043 3044 3044 3044 3044 3044 3044
3058 3057 3055 3054 3053 3053 3052 3053 3054 3054 3054 3053 3053 3053 3052 3052 3051 3050 3049 3048 3047 3046 3045 3045 3045 3044 3044 3043 3043 3043 3042 3042 3042 3042 3042 3043 3043 3043 3043 3043 3043 3044 3044 3044
3054 3052 3051 3048 3047 3046 3046 3047 3047 3048 3048 3048 3048 3047 3047 3047 3047 3047 3045 3044 3044 3043 3042 3041 3041 3040 3041 3041 3040 3040 3040 3040 3040 3040 3041 3041 3040 3040 3040 3041 3041 3041 3041 3041
3050 3047 3046 3044 3042 3041 3040 3039 3039 3040 3041 3041 3041 3041 3042 3042 3042 3042 3041 3040 3040 3039 3039 3037 3036 3036 3035 3035 3036 3036 3036 3036 3036 3036 3036 3036 3036 3037 3038 3037 3037 3037 3037 3037
3047 3045 3043 3041 3040 3037 3033 3032 3031 3031 3032 3033 3033 3034 3035 3036 3036 3036 3036 3035 3035 3035 3033 3033 3032 3031 3030 3031 3030 3031 3031 3031 3032 3033 3033 3033 3033 3033 3033 3033 3033 3033 3033 3032
3042 3039 3036 3034 3032 3031 3029 3025 3024 3022 3023 3024 3024 3026 3027 3029 3029 3029 3028 3029 3031 3029 3028 3028 3027 3026 3026 3026 3026 3026 3027 3027 3027 3028 3028 3028 3029 3029 3029 3029 3029 3029 3028 3027
3034 3032 3029 3026 3024 3022 3022 3019 3015 3013 3013 3013 3014 3016 3018 3019 3020 3020 3021 3023 3024 3023 3022 3022 3022 3022 3021 3020 3021 3021 3022 3022 3022 3023 3024 3025 3025 3025 3025 3024 3024 3023 3022 3020
3022 3021 3021 3019 3016 3013 3011 3010 3007 3003 3001 3001 3003 3005 3007 3009 3010 3010 3011 3015 3016 3016 3015 3016 3016 3016 3015 3014 3015 3016 3017 3017 3017 3018 3018 3019 3019 3018 3018 3018 3017 3016 3015 3014
3013 3009 3009 3010 3005 3003 3000 2999 2997 2994 2991 2988 2989 2992 2994 2997 2998 3000 3003 3004 3005 3007 3008 3008 3008 3009 3008 3008 3008 3009 3010 3010 3011 3011 3012 3012 3012 3011 3011 3010 3009 3008 3007 3006
2997 2995 2993 2992 2991 2991 2989 2988 2985 2984 2983 2979 2978 2980 2983 2985 2987 2992 2991 2993 2996 2997 2998 2999 3000 3000 3000 3000 3000 3001 3002 3003 3003 3003 3003 3003 3003 3003 3003 3002 3001 3001 2999 2998
2979 2977 2975 2976 2975 2975 2978 2977 2976 2974 2972 2971 2969 2969 2971 2973 2975 2978 2980 2982 2984 2986 2988 2990 2991 2991 2991 2992 2992 2993 2994 2995 2995 2995 2995 2995 2995 2994 2994 2994 2993 2992 2990 2988
2963 2961 2957 2955 2958 2960 2962 2963 2963 2962 2962 2962 2960 2960 2959 2960 2963 2965 2968 2970 2972 2973 2975 2979 2980 2982 2982 2983 2983 2984 2985 2986 2986 2987 2987 2987 2986 2985 2985 2984 2983 2982 2980 2978
Wind_Speed
21 25 27 24 22 20 22 23 24 24 25 20 21 20 20 19 20 22 24 25 31 31 36 28 28 31 35 35 36 38 40 40 40 34 34 34 37 35 36 32 28 21 20 19
28 15 15 21 21 22 24 24 26 25 26 17 22 25 25 16 18 23 25 28 28 28 30 28 26 31 31 30 30 31 33 35 35 33 41 37 36 33 34 34 30 25 22 22
15 16 27 18 11 16 24 23 28 33 26 24 25 23 19 20 18 20 22 23 24 27 32 24 23 26 21 19 19 22 27 30 31 35 37 39 36 37 37 36 32 27 26 28
19 22 7 8 27 19 15 19 21 21 18 19 22 20 18 16 18 17 21 20 23 25 27 27 19 21 14 9 9 14 22 28 36 38 39 37 38 38 37 34 33 31 28 24
6 16 24 18 13 17 25 22 12 11 13 16 15 14 13 16 21 25 22 22 22 20 23 23 15 18 13 4 2 7 19 32 36 40 41 49 42 35 35 33 30 26 25 25
14 12 5 12 21 25 19 10 7 17 14 12 11 12 13 16 17 17 18 19 18 15 17 24 12 15 13 7 4 3 10 21 36 30 35 33 25 22 27 25 24 25 26 25
16 13 14 17 19 17 3 5 16 15 8 8 10 12 13 15 16 16 15 15 15 15 16 17 16 12 15 13 9 8 10 18 19 19 31 34 29 22 24 25 24 24 23 24
6 6 8 16 16 6 10 12 9 6 8 11 8 9 12 14 15 16 16 15 17 18 16 16 18 12 12 19 20 18 18 13 16 20 25 24 25 25 23 24 24 23 22 21
8 13 17 16 12 10 6 3 2 0 1 4 6 8 11 12 13 17 19 21 20 20 20 18 18 17 13 18 21 20 17 18 18 15 13 16 18 20 19 18 16 15 13 9
17 12 11 9 7 3 1 3 5 5 2 1 2 4 6 9 12 14 16 19 21 21 20 21 20 19 19 18 19 19 21 21 19 18 17 15 14 15 14 14 15 12 9 8
21 14 11 8 6 5 3 2 3 4 4 2 1 3 5 7 9 11 14 16 18 21 23 24 24 23 22 21 20 20 20 21 24 24 23 22 21 16 14 14 14 11 10 5
20 15 14 12 10 8 7 6 5 4 4 3 1 2 4 6 8 9 11 13 15 17 19 21 22 23 24 23 23 23 23 23 24 25 25 24 21 20 21 19 15 13 12 12
20 16 16 15 13 12 10 8 7 6 5 4 3 1 1 1 3 5 7 9 11 12 14 14 16 17 19 19 20 21 22 23 23 23 22 21 21 20 20 19 17 15 13 11
27 23 21 17 16 14 14 12 11 10 9 8 7 6 4 3 2 2 3 4 6 7 9 10 11 12 13 13 13 14 15 16 16 16 16 17 16 16 16 15 13 12 10 8
19 27 24 22 21 20 18 17 16 14 14 13 12 10 9 8 7 6 4 3 2 2 3 4 6 6 8 9 9 9 9 10 10 11 11 11 11 11 11 10 9 8 6 6
19 26 25 26 25 24 23 22 21 19 19 18 17 15 14 13 11 10 10 9 7 6 4 4 3 2 1 2 3 4 5 6 7 7 7 7 7 8 8 8 7 7 6 5
22 24 31 26 28 29 29 26 24 24 24 23 22 20 19 17 16 14 14 13 13 12 10 8 7 7 6 5 5 4 3 2 0 1 2 3 4 6 7 7 6 6 6 6
22 22 24 29 29 29 31 31 30 29 28 28 27 25 24 22 19 19 18 17 15 15 15 15 13 11 10 9 9 9 9 8 8 7 6 6 6 6 7 7 8 8 9 11
20 17 18 23 27 31 32 34 33 30 30 31 32 31 27 26 23 22 21 20 18 17 16 18 17 16 14 13 11 11 11 10 10 10 10 9 9 9 10 11 13 13 14 15
26 25 25 26 26 27 33 37 38 37 34 32 34 34 32 29 27 25 24 22 20 19 21 19 18 19 18 16 15 14 13 12 12 11 11 11 11 11 12 13 14 14 15 16
35 35 33 33 32 33 29 30 40 41 39 37 36 35 34 31 31 29 28 25 19 22 22 22 20 20 20 19 19 18 17 16 15 14 13 13 13 14 15 15 16 17 18 19
44 42 42 42 38 37 34 31 32 36 42 43 41 37 35 34 33 33 30 27 23 24 24 22 22 21 21 22 21 21 20 20 19 19 18 17 17 18 19 19 19 20 20 21
45 47 46 43 39 39 38 35 32 35 40 43 43 41 38 34 33 34 34 28 25 25 26 23 20 22 24 24 22 22 22 23 23 23 22 22 22 22 22 22 22 23 23 23
47 48 47 46 46 47 39 35 34 34 36 40 44 42 41 38 36 34 34 33 31 27 26 25 23 22 24 26 24 23 23 24 24 24 24 24 24 24 24 24 25 25 25 25
64 62 59 45 47 54 45 33 36 36 35 37 34 38 39 40 39 34 35 34 33 32 29 27 26 25 24 25 26 25 24 24 24 25 25 26 25 25 25 25 25 26 26 27
61 56 52 57 52 51 58 57 40 36 38 38 37 35 36 37 38 36 36 35 34 33 32 30 28 28 27 26 26 27 26 25 25 24 24 25 26 27 27 26 27 28 29 30
45 48 40 44 49 40 38 38 37 36 33 35 37 35 36 35 34 37 35 36 36 36 34 32 31 30 29 29 28 27 28 28 28 27 25 25 26 26 27 27 28 30 31 32
Wind_Direction
276 285 288 279 275 269 264 265 267 282 289 304 290 304 308 308 309 303 306 314 316 312 317 311 300 293 287 278 261 246 241 236 232 232 221 206 201 217 215 211 206 207 211 211
311 324 305 290 280 271 266 269 270 272 274 281 283 292 297 302 304 308 320 320 320 313 319 316 300 297 288 276 267 246 233 228 226 226 201 196 199 197 209 202 204 207 210 214
296 306 311 297 292 284 276 273 272 268 285 287 290 299 304 303 311 322 332 332 334 331 327 323 311 309 303 286 261 242 228 217 212 214 203 217 204 198 201 202 200 206 212 217
285 316 275 303 314 311 315 298 285 284 294 290 296 306 311 298 324 327 326 329 328 323 327 326 322 326 315 281 258 237 209 202 198 203 197 199 195 201 209 205 202 210 220 226
294 304 291 293 298 314 316 316 296 308 311 310 309 309 321 318 319 320 326 324 324 331 331 341 343 343 333 354 253 212 200 196 197 190 189 195 195 201 202 203 205 214 226 234
291 302 286 293 309 319 327 324 344 334 323 326 327 337 329 327 328 328 334 331 336 341 336 348 9 5 5 31 91 128 164 193 199 179 183 183 180 184 186 199 211 220 229 238
279 269 272 288 306 314 275 281 315 325 347 351 352 350 348 347 352 358 2 354 358 2 3 2 19 28 34 65 87 95 132 154 176 180 185 170 187 188 199 207 218 227 234 242
282 259 271 318 320 289 297 307 314 334 337 340 10 8 4 5 9 14 25 21 23 26 22 23 23 58 54 74 78 78 87 124 146 161 152 167 184 197 202 209 216 225 238 248
255 288 318 329 328 308 300 279 245 3 58 12 12 12 13 21 21 27 34 41 35 31 41 38 39 51 84 82 88 98 104 104 109 118 137 170 188 196 203 206 206 206 206 219
309 335 326 334 343 343 148 153 149 144 145 123 40 37 29 27 26 29 32 35 37 44 48 53 59 60 82 91 97 98 105 107 109 120 126 135 150 162 169 172 173 172 194 209
301 320 310 311 308 299 274 210 184 180 175 165 106 56 50 39 37 35 37 39 42 43 44 55 65 71 80 90 96 100 102 109 115 118 126 129 128 130 141 142 141 152 157 133
289 305 307 305 296 286 283 273 249 226 201 182 149 55 41 31 34 34 37 39 41 43 44 47 53 66 77 84 90 94 98 101 103 102 101 104 105 101 105 124 132 133 121 114
283 279 286 285 288 284 274 265 255 245 237 229 217 233 304 10 32 34 35 41 43 45 48 52 53 56 60 67 73 79 84 86 88 90 96 100 103 106 110 115 117 111 107 104
296 275 275 278 280 272 267 264 257 249 245 243 244 243 248 260 289 342 26 40 43 45 47 53 57 63 65 64 66 72 77 84 89 92 95 99 102 102 99 97 98 98 96 88
289 283 268 267 267 269 264 261 260 257 254 251 250 247 248 255 265 276 287 303 326 355 14 38 51 56 70 79 82 83 86 90 90 93 94 92 93 93 90 86 83 80 78 70
290 286 279 263 263 267 268 264 264 262 260 260 258 258 260 262 266 276 285 289 288 290 288 288 290 288 344 62 73 82 88 89 90 88 92 94 92 89 86 81 72 60 47 33
302 281 287 279 265 263 268 267 264 263 263 263 264 264 264 269 273 279 283 287 291 293 289 283 275 271 265 264 257 254 264 265 195 103 87 73 59 53 50 45 35 21 7 355
299 298 275 288 274 265 264 269 272 267 266 267 267 266 267 270 275 276 280 282 285 286 290 290 285 279 271 265 265 268 270 276 285 292 306 324 330 331 330 323 310 302 298 298
353 333 303 277 285 274 269 266 264 266 266 266 267 270 270 270 269 272 277 281 284 286 285 282 284 281 277 273 271 268 269 272 276 283 288 288 291 293 291 286 285 288 290 291
329 328 331 337 324 304 277 266 265 265 262 263 265 265 268 270 271 271 272 275 280 282 279 280 278 276 277 274 269 265 266 269 274 279 282 283 283 281 280 282 284 286 288 290
319 323 323 320 323 320 310 285 268 264 263 261 262 266 269 270 269 267 268 272 275 273 275 278 275 271 269 269 268 267 266 264 263 264 266 271 277 280 280 282 285 288 290 291
304 308 310 311 312 308 303 302 289 272 265 263 261 261 264 266 266 269 269 271 269 268 273 274 274 270 266 263 261 264 266 267 267 267 268 271 274 277 280 283 284 285 288 290
294 292 296 295 296 299 294 293 297 289 275 263 258 258 259 263 263 263 267 270 267 267 271 273 271 267 265 263 260 258 259 260 262 264 267 271 275 278 280 283 284 287 288 289
288 291 288 285 290 290 291 285 295 298 290 277 257 250 251 255 257 258 261 265 269 269 268 271 269 266 264 265 262 259 258 259 262 264 267 271 275 278 281 280 283 286 288 290
291 285 285 285 283 282 286 291 282 293 300 287 266 254 251 253 256 258 256 258 262 266 268 267 269 269 266 265 264 260 258 259 261 263 265 267 271 273 274 277 281 284 286 289
284 281 283 283 277 278 282 283 284 282 288 293 278 264 259 254 255 254 258 257 256 260 264 265 265 267 268 268 266 263 261 261 262 265 269 272 273 273 274 276 278 280 283 285
301 293 299 278 270 276 275 272 277 274 271 276 278 270 266 260 252 254 253 255 258 260 261 261 263 263 265 266 266 265 261 260 262 265 270 275 277 279 279 279 278 279 282 286